This is the latest recevied weather packets stored in our database for station/object KV4OP. If no packets are shown the sender has not sent any weather packets the latest 10 day(s).
| Time | Temp. | Humidity | Pressure | Rain* | Wind** | Luminosity | Snow |
|---|---|---|---|---|---|---|---|
| 1777734333 | 27.78° C | 68% | 1011.8 hPa | 0 mm | - | - | - |
| 1777734033 | 27.78° C | 67% | 1011.9 hPa | 0 mm | - | - | - |
| 1777733735 | 28.33° C | 67% | 1012 hPa | 0 mm | - | - | - |
| 1777733432 | 27.78° C | 69% | 1012.2 hPa | 0 mm | - | - | - |
| 1777733155 | 27.78° C | 68% | 1012.2 hPa | 0 mm | - | - | - |
| 1777732833 | 27.78° C | 68% | 1012.3 hPa | 0 mm | - | - | - |
| 1777732531 | 27.78° C | 68% | 1012.3 hPa | 0 mm | - | - | - |
| 1777732229 | 27.22° C | 70% | 1012.2 hPa | 0 mm | - | - | - |
| 1777731931 | 26.67° C | 69% | 1012.1 hPa | 0 mm | - | - | - |
| 1777731630 | 26.67° C | 70% | 1012.3 hPa | 0 mm | - | - | - |
| 1777731327 | 26.67° C | 69% | 1012.1 hPa | 0 mm | - | - | - |
| 1777731028 | 26.67° C | 72% | 1012.1 hPa | 0 mm | - | - | - |
| 1777730725 | 26.67° C | 72% | 1012.2 hPa | 0 mm | - | - | - |
| 1777730424 | 26.67° C | 73% | 1011.9 hPa | 0 mm | - | - | - |
| 1777730125 | 26.11° C | 74% | 1012 hPa | 0 mm | - | - | - |
| 1777729822 | 26.11° C | 75% | 1012 hPa | 0 mm | - | - | - |
| 1777729522 | 25.56° C | 75% | 1011.8 hPa | 0 mm | - | - | - |
| 1777729222 | 25.56° C | 75% | 1011.8 hPa | 0 mm | - | - | - |
| 1777728920 | 26.11° C | 74% | 1011.8 hPa | 0 mm | - | - | - |
| 1777728620 | 25.56° C | 75% | 1011.5 hPa | 0 mm | - | - | - |
| 1777728318 | 25.56° C | 75% | 1011.5 hPa | 0 mm | - | - | - |
| 1777728018 | 25° C | 76% | 1011.4 hPa | 0 mm | - | - | - |
| 1777727717 | 25° C | 76% | 1011.4 hPa | 0 mm | - | - | - |
| 1777727416 | 25° C | 79% | 1011.3 hPa | 0 mm | - | - | - |
| 1777727114 | 25° C | 81% | 1011.2 hPa | 0 mm | - | - | - |
* Rain latest hour (hover to see other rain measurements)
** Current wind speed in m/s (hover to see current wind gust speed)